Starlink 36142

operational
NORAD ID: 66981 Int'l Des: 2025-288 Owner: SPXS Country: US Constellation: starlink
LEOCIRCULAR

Über Starlink 36142

Beschreibung wird geladen...

Live-Position

3D-Globus wird geladen...

Nächste Überflüge

Höhenverlauf

Altitude vs Time

uPlot chart will show altitude changes over time

Zweizeiliger Elementsatz

1 66981C 25288Y 25346.10118056 -.01090100 00000+0 -17899-2 0 3461
2 66981 43.0042 171.8130 0001855 270.2777 146.7464 16.03272268 17
Epoch: 12. Dez. 2025 • Age: 59 hours

Aktueller Status

Höhe 285.1 km
Geschwindigkeit 7.74 km/s
Subsatellitenpunkt -29.74°S, 133.24°E
Startdatum 8. Dez. 2025
Alter 5 days
Typ internet

Technische Details

Klassifizierung Payload
Masse 575.00 kg
Trockenmasse 530.00 kg
Gesamtmasse 575.00 kg
Länge 0.30 m
Durchmesser 4.10 m
Spannweite 29.00 m
Form Box + pan
Hersteller SPXS
Bus-Typ Starlink V2MO
Phasenstatus In Orbit
Besitzer/Staat SPXS/US

Große Konstellationen

Loading constellations...